[[{"header":{"parameterUnit":"m.s-1","parameterCategory":1,"la1":30.2991,"la2":30.254,"lo1":-89.0895,"lo2":-89.0444,"dy":0.0017,"dx":0.0017,"nx":28,"ny":28,"refTime":"2025-02-28T03:00:00:Z","depth":0,"parameterNumber":2,"parameterNumberName":"U-component_of_WINDS"},"data":[0,0,0,0,0,0,0,0,0,0,0,0,0,0,0,0,0,0,0,0,0,0,0,0,0,0,0,0,0,0,0,0,0,0,0,0,0,0,0,0,0,0,0,0,0,0,0,0,0,0,0,0,0,0,0,0,0,0,-0.3046,-0.3046,0,-0.3067,-0.3067,-0.3067,-0.3032,-0.3031,-0.303,-0.3028,-0.3052,-0.3054,-0.3055,0,0,0,0,0,0,0,0,0,0,0,0,0,-0.2978,-0.2979,-0.3046,-0.3046,-0.3047,-0.3067,-0.3067,-0.3067,-0.3032,-0.3031,-0.3029,-0.3028,-0.3051,-0.3054,-0.3056,0,0,0,0,0,0,0,0,0,0,0,0,0,-0.3004,-0.2979,-0.3046,-0.3031,-0.303,-0.3067,-0.3067,-0.3067,-0.3033,-0.3031,-0.3029,-0.3027,-0.3051,-0.3053,-0.3056,-0.3108,0,0,-0.3064,-0.3065,0,0,0,0,0,0,0,0,-0.3002,-0.3006,-0.3033,-0.3032,-0.3031,-0.3045,-0.3051,-0.3081,-0.3033,-0.3032,-0.3028,-0.3026,-0.3051,-0.3054,-0.3062,-0.3109,-0.311,-0.3064,-0.3066,-0.3067,-0.3068,0,0,0,0,0,0,0,-0.3001,-0.3005,-0.3054,-0.3034,-0.3033,-0.3024,-0.3026,-0.3057,-0.3051,-0.3032,-0.3029,-0.3032,-0.305,-0.3059,-0.3062,-0.3111,-0.3064,-0.3066,-0.3068,-0.3069,-0.3202,-0.3204,0,0,0,0,0,0,-0.3,-0.3004,-0.3054,-0.3055,-0.3012,-0.3027,-0.3029,-0.3042,-0.3051,-0.3051,-0.3034,-0.303,-0.3056,-0.3059,-0.3063,-0.3125,-0.3067,-0.3069,-0.3071,-0.32,-0.3202,-0.3205,0,0,0,0,0,0,-0.2999,-0.3005,-0.3053,-0.3029,-0.3034,-0.303,-0.3045,-0.3044,-0.3053,-0.3052,-0.3051,-0.3044,-0.3054,-0.3059,-0.3097,-0.3125,-0.307,-0.3073,-0.3198,-0.3201,-0.3203,-0.3249,0,0,0,0,0,0,-0.2997,-0.3005,-0.3024,-0.3029,-0.3036,-0.3086,-0.3047,-0.3045,-0.3057,-0.3053,-0.3061,-0.3061,-0.3053,-0.3093,-0.31,-0.3128,-0.3075,-0.3195,-0.3199,-0.3203,-0.3245,-0.3253,-0.326,0,0,0,0,0,-0.2995,-0.3037,-0.3025,-0.3032,-0.306,-0.3088,-0.3092,-0.3081,-0.3059,-0.3079,-0.3079,-0.3061,-0.312,-0.3097,-0.3104,-0.3134,-0.3193,-0.3198,-0.3202,-0.3242,-0.3252,-0.326,0,0,0,0,0,0,-0.3036,-0.3037,-0.3025,-0.3069,-0.3079,-0.3082,-0.3107,-0.3092,-0.3108,-0.3104,-0.3091,-0.3093,-0.3134,-0.3137,-0.3111,-0.3184,-0.3153,-0.3159,-0.3181,-0.319,-0.3198,-0.3197,-0.3077,0,0,0,0,0,-0.305,-0.3073,-0.3072,-0.3112,-0.3117,-0.3111,-0.3123,-0.3114,-0.3124,-0.3128,-0.313,-0.3141,-0.3162,-0.3176,-0.3195,-0.3245,-0.3246,-0.3268,-0.3276,-0.3282,-0.3288,-0.3314,-0.3324,-0.3219,-0.3219,-0.3219,0,0,-0.308,-0.3083,-0.3099,-0.312,-0.3127,-0.3151,-0.3115,-0.3142,-0.316,-0.3132,-0.3168,-0.317,-0.3181,-0.3225,-0.3244,-0.3229,-0.3317,-0.3288,-0.3293,-0.3295,-0.332,-0.333,-0.3339,-0.3222,-0.3221,-0.3221,0,0,-0.3147,-0.3151,-0.3185,-0.3192,-0.3201,-0.3197,-0.3205,-0.321,-0.321,-0.3246,-0.3225,-0.3246,-0.3283,-0.3291,-0.3301,-0.3369,-0.3354,-0.3376,-0.3416,-0.3442,-0.345,-0.3458,-0.3483,-0.3492,-0.3381,-0.3382,-0.3382,0,-0.3183,-0.3218,-0.3204,-0.3232,-0.3243,-0.3217,-0.3252,-0.3259,-0.3275,-0.3283,-0.3265,-0.331,-0.3315,-0.3361,-0.3378,-0.3386,-0.3395,-0.3376,-0.345,-0.3457,-0.3464,-0.3488,-0.3498,-0.3384,-0.3384,-0.3384,-0.3383,0,-0.3262,-0.3287,-0.3313,-0.3328,-0.3341,-0.3372,-0.3363,-0.3378,-0.3368,-0.3365,-0.3402,-0.3407,-0.3427,-0.3437,-0.3427,-0.3482,-0.3472,-0.3452,-0.3421,-0.3477,-0.3499,-0.3509,-0.3388,-0.3387,-0.3386,-0.3386,0,0,-0.3358,-0.3363,-0.3373,-0.338,-0.3388,-0.3407,-0.3436,-0.3455,-0.3468,-0.348,-0.3505,-0.3536,-0.3518,-0.3528,-0.3519,-0.3542,-0.3597,-0.3519,-0.3519,-0.3534,-0.3657,-0.3673,-0.3684,-0.3585,-0.3587,-0.3588,-0.3657,0,-0.3425,-0.3475,-0.3464,-0.3514,-0.3537,-0.3512,-0.3538,-0.3546,-0.3545,-0.3564,-0.3562,-0.3585,-0.3558,-0.3564,-0.3586,-0.3585,-0.3621,-0.358,-0.361,-0.3611,-0.3609,-0.3695,-0.3712,-0.3776,-0.3665,-0.3667,-0.3668,0,-0.351,-0.3524,-0.3577,-0.358,-0.3589,-0.3613,-0.3629,-0.3647,-0.3656,-0.3653,-0.3664,-0.365,-0.368,-0.3648,-0.3689,-0.3661,-0.3672,-0.3674,-0.3676,-0.368,-0.3644,-0.3702,-0.3796,-0.3806,-0.3681,-0.368,-0.3679,0,-0.3575,-0.3607,-0.3642,-0.3648,-0.3654,-0.3671,-0.3674,-0.3681,-0.3693,-0.3707,-0.3714,-0.3732,-0.3742,-0.3756,-0.3747,-0.3724,-0.3791,-0.3757,-0.379,-0.379,-0.3806,-0.3806,-0.3905,-0.3811,-0.3811,-0.3811,-0.3811,0,-0.3652,-0.3686,-0.3672,-0.3694,-0.3731,-0.3716,-0.3753,-0.3754,-0.3759,-0.3782,-0.3761,-0.3783,-0.3769,-0.379,-0.3783,-0.3819,-0.3823,-0.3822,-0.382,-0.3825,-0.3825,-0.3833,-0.3829,-0.3814,-0.3813,-0.3813,-0.3812,0,-0.3732,-0.3724,-0.3761,-0.3763,-0.3764,-0.3791,-0.3792,-0.3813,-0.3809,-0.3837,-0.3843,-0.3838,-0.386,-0.3853,-0.3877,-0.3873,-0.3918,-0.391,-0.3916,-0.3914,-0.3948,-0.3945,-0.4056,-0.407,-0.3967,-0.3968,-0.3969,0,-0.3782,-0.3807,-0.3811,-0.3824,-0.3828,-0.385,-0.3861,-0.3848,-0.3861,-0.3872,-0.3892,-0.3912,-0.3929,-0.3966,-0.3965,-0.3983,-0.3976,-0.4014,-0.3979,-0.3983,-0.3978,-0.3977,-0.398,-0.4021,-0.4022,-0.4023,-0.4024,0,-0.3873,-0.3867,-0.3885,-0.3901,-0.3915,-0.3927,-0.3937,-0.3949,-0.3936,-0.3952,-0.3975,-0.3987,-0.4012,-0.4033,-0.4049,-0.4053,-0.4037,-0.4035,-0.4044,-0.4049,-0.4052,-0.4052,-0.3936,-0.4033,-0.4032,-0.4031,-0.4031,-0.403,-0.394,-0.3961,-0.3967,-0.3987,-0.3993,-0.4003,-0.4023,-0.4021,-0.4039,-0.4058,-0.4048,-0.4075,-0.4082,-0.4103,-0.4109,-0.4129,-0.4115,-0.4128,-0.4131,-0.4135,-0.4139,-0.4047,-0.4132,-0.4132,-0.4132,-0.4132,-0.4131,0,-0.4031,-0.4033,-0.4051,-0.4066,-0.4082,-0.4063,-0.4074,-0.4088,-0.4112,-0.4119,-0.4135,-0.4161,-0.4181,-0.4181,-0.42,-0.4216,-0.421,-0.4222,-0.4221,-0.4223,-0.4151,-0.4142,-0.4227,-0.4227,-0.4227,-0.4227,-0.4227,-0.4227,-0.408,-0.4115,-0.411,-0.4147,-0.4149,-0.4175,-0.4182,-0.4191,-0.4197,-0.4227,-0.4243,-0.4242,-0.4247,-0.4266,-0.4284,-0.4283,-0.4291,-0.4307,-0.4304,-0.4237,-0.4228,-0.4219,-0.421,-0.4309,-0.4309,-0.4374,-0.4375,-0.4375]},{"header":{"parameterUnit":"m.s-1","parameterCategory":1,"la1":30.2991,"la2":30.254,"lo1":-89.0895,"lo2":-89.0444,"dy":0.0017,"dx":0.0017,"nx":28,"ny":28,"refTime":"2025-02-28T03:00:00:Z","depth":0,"parameterNumber":3,"parameterNumberName":"V-component_of_WINDS"},"data":[0,0,0,0,0,0,0,0,0,0,0,0,0,0,0,0,0,0,0,0,0,0,0,0,0,0,0,0,0,0,0,0,0,0,0,0,0,0,0,0,0,0,0,0,0,0,0,0,0,0,0,0,0,0,0,0,0,0,-2.5205,-2.5205,0,-2.5226,-2.5227,-2.5227,-2.5177,-2.5176,-2.5174,-2.5173,-2.5193,-2.5195,-2.5196,0,0,0,0,0,0,0,0,0,0,0,0,0,-2.5119,-2.5121,-2.5205,-2.5205,-2.5205,-2.5226,-2.5227,-2.5227,-2.5178,-2.5176,-2.5174,-2.5172,-2.5192,-2.5194,-2.5197,0,0,0,0,0,0,0,0,0,0,0,0,0,-2.515,-2.5122,-2.5205,-2.5183,-2.5182,-2.5226,-2.5227,-2.5227,-2.5178,-2.5176,-2.5173,-2.5171,-2.5191,-2.5194,-2.5197,-2.5263,0,0,-2.5206,-2.5207,0,0,0,0,0,0,0,0,-2.5148,-2.5153,-2.5186,-2.5185,-2.5183,-2.5197,-2.5204,-2.5239,-2.5179,-2.5179,-2.5173,-2.517,-2.5196,-2.5198,-2.5207,-2.5264,-2.5264,-2.5206,-2.5208,-2.521,-2.521,0,0,0,0,0,0,0,-2.5146,-2.5152,-2.5213,-2.5187,-2.5185,-2.5172,-2.5174,-2.521,-2.52,-2.5179,-2.5176,-2.5179,-2.5194,-2.5205,-2.5207,-2.5265,-2.5206,-2.5209,-2.5211,-2.5212,-2.5376,-2.5378,0,0,0,0,0,0,-2.5147,-2.5151,-2.5213,-2.5214,-2.516,-2.5176,-2.5177,-2.5195,-2.52,-2.5198,-2.5181,-2.5177,-2.5201,-2.5204,-2.5208,-2.5285,-2.5209,-2.5212,-2.5214,-2.5373,-2.5376,-2.5379,0,0,0,0,0,0,-2.5146,-2.5153,-2.5212,-2.5181,-2.5188,-2.518,-2.5199,-2.5196,-2.5207,-2.5201,-2.5199,-2.5193,-2.5199,-2.5204,-2.5249,-2.5285,-2.5214,-2.5216,-2.537,-2.5374,-2.5378,-2.544,0,0,0,0,0,0,-2.5143,-2.5153,-2.5178,-2.5182,-2.519,-2.5254,-2.5201,-2.5199,-2.5212,-2.5207,-2.5212,-2.5211,-2.5197,-2.5245,-2.5252,-2.5288,-2.5219,-2.5367,-2.5372,-2.5376,-2.5435,-2.5446,-2.5455,0,0,0,0,0,-2.5141,-2.5195,-2.518,-2.5188,-2.5221,-2.5256,-2.526,-2.5244,-2.5215,-2.524,-2.5237,-2.5211,-2.528,-2.525,-2.5258,-2.5295,-2.5364,-2.537,-2.5376,-2.543,-2.5444,-2.5455,0,0,0,0,0,0,-2.5194,-2.5195,-2.5178,-2.5236,-2.5246,-2.5248,-2.5279,-2.5258,-2.5277,-2.5271,-2.5249,-2.5251,-2.5301,-2.5302,-2.5269,-2.5359,-2.5317,-2.5325,-2.5356,-2.5369,-2.5378,-2.5377,-2.5221,0,0,0,0,0,-2.5213,-2.5242,-2.524,-2.5291,-2.5297,-2.5287,-2.5302,-2.5289,-2.5298,-2.5302,-2.5302,-2.5312,-2.5336,-2.5352,-2.5374,-2.5435,-2.5435,-2.5464,-2.5474,-2.5482,-2.5489,-2.5521,-2.5534,-2.5398,-2.5398,-2.5398,0,0,-2.5252,-2.5256,-2.5275,-2.5302,-2.5309,-2.5338,-2.5291,-2.5325,-2.5346,-2.5307,-2.5351,-2.5351,-2.536,-2.5414,-2.5438,-2.5417,-2.5527,-2.5489,-2.5496,-2.5498,-2.5528,-2.5541,-2.5553,-2.5402,-2.5401,-2.54,0,0,-2.5338,-2.5343,-2.5386,-2.5394,-2.5405,-2.5398,-2.5408,-2.5413,-2.5412,-2.5455,-2.5426,-2.5451,-2.5493,-2.5501,-2.5511,-2.56,-2.5576,-2.5607,-2.566,-2.5691,-2.5702,-2.5712,-2.5743,-2.5755,-2.5614,-2.5614,-2.5614,0,-2.5384,-2.5428,-2.5411,-2.5447,-2.5459,-2.5426,-2.5469,-2.5477,-2.5494,-2.5503,-2.5479,-2.5531,-2.5535,-2.559,-2.5612,-2.5621,-2.5632,-2.5607,-2.5702,-2.5711,-2.572,-2.575,-2.5762,-2.5618,-2.5617,-2.5617,-2.5617,0,-2.5485,-2.5516,-2.555,-2.5568,-2.5584,-2.5623,-2.5611,-2.5629,-2.5615,-2.561,-2.5655,-2.5658,-2.568,-2.5692,-2.5678,-2.5745,-2.5732,-2.5706,-2.5664,-2.5737,-2.5765,-2.5776,-2.5623,-2.5622,-2.5621,-2.562,0,0,-2.5606,-2.5614,-2.5627,-2.5635,-2.5644,-2.5667,-2.5705,-2.5727,-2.5743,-2.5756,-2.5787,-2.5823,-2.5798,-2.5809,-2.5795,-2.5823,-2.5894,-2.5793,-2.5793,-2.5812,-2.5968,-2.5989,-2.6002,-2.5878,-2.588,-2.5882,-2.5968,0,-2.5691,-2.5756,-2.5741,-2.5805,-2.5834,-2.5802,-2.5834,-2.5843,-2.584,-2.5863,-2.5859,-2.5885,-2.5851,-2.5857,-2.5883,-2.588,-2.5925,-2.5873,-2.5906,-2.5908,-2.5905,-2.6017,-2.6038,-2.6119,-2.5978,-2.598,-2.5982,0,-2.5799,-2.5817,-2.5884,-2.5889,-2.59,-2.593,-2.5949,-2.5972,-2.5981,-2.5976,-2.5989,-2.597,-2.6006,-2.5963,-2.6013,-2.5978,-2.5991,-2.5991,-2.5994,-2.5996,-2.5949,-2.6023,-2.6144,-2.6157,-2.5999,-2.5997,-2.5996,0,-2.5881,-2.5921,-2.5967,-2.5974,-2.5981,-2.6003,-2.6007,-2.6014,-2.6028,-2.6044,-2.6053,-2.6074,-2.6085,-2.6101,-2.6087,-2.6057,-2.6139,-2.6095,-2.6136,-2.6136,-2.6155,-2.6154,-2.628,-2.6162,-2.6162,-2.6162,-2.6162,0,-2.5977,-2.602,-2.6004,-2.6032,-2.6078,-2.606,-2.6106,-2.6106,-2.6113,-2.614,-2.6113,-2.6139,-2.6119,-2.6143,-2.6133,-2.6175,-2.618,-2.6177,-2.6174,-2.618,-2.6181,-2.6188,-2.6183,-2.6165,-2.6164,-2.6164,-2.6163,0,-2.6077,-2.6068,-2.6115,-2.6118,-2.612,-2.6154,-2.6156,-2.6181,-2.6176,-2.6211,-2.6217,-2.6209,-2.6236,-2.6224,-2.6251,-2.6244,-2.6299,-2.6288,-2.6297,-2.6294,-2.6335,-2.6332,-2.6472,-2.6489,-2.636,-2.6361,-2.6362,0,-2.6139,-2.6171,-2.6178,-2.6195,-2.62,-2.6227,-2.6242,-2.6225,-2.6241,-2.6254,-2.6279,-2.6303,-2.6322,-2.6366,-2.6362,-2.6383,-2.6372,-2.642,-2.6375,-2.638,-2.6374,-2.6372,-2.6375,-2.6429,-2.6431,-2.6432,-2.6433,0,-2.6252,-2.6246,-2.6268,-2.629,-2.6308,-2.6324,-2.6337,-2.6352,-2.6335,-2.6355,-2.6382,-2.6397,-2.6426,-2.645,-2.6469,-2.6472,-2.645,-2.6447,-2.6457,-2.6464,-2.6468,-2.6467,-2.6321,-2.6444,-2.6443,-2.6442,-2.6441,-2.6441,-2.6335,-2.6362,-2.6371,-2.6397,-2.6405,-2.6418,-2.6443,-2.6441,-2.6463,-2.6486,-2.6474,-2.6506,-2.6514,-2.6537,-2.6543,-2.6567,-2.6549,-2.6564,-2.6568,-2.6572,-2.6578,-2.6464,-2.6571,-2.657,-2.657,-2.657,-2.6569,0,-2.6446,-2.645,-2.6475,-2.6494,-2.6515,-2.6493,-2.6506,-2.6525,-2.6553,-2.6563,-2.6582,-2.6614,-2.6637,-2.6635,-2.6657,-2.6677,-2.6667,-2.6683,-2.6682,-2.6683,-2.6593,-2.6582,-2.669,-2.669,-2.669,-2.669,-2.669,-2.669,-2.6507,-2.6551,-2.6546,-2.6595,-2.6598,-2.663,-2.664,-2.6652,-2.6659,-2.6696,-2.6716,-2.6714,-2.6719,-2.6741,-2.6762,-2.676,-2.677,-2.6789,-2.6784,-2.6701,-2.6689,-2.6678,-2.6667,-2.6791,-2.6792,-2.6872,-2.6873,-2.6873]}]]